[[{"header":{"parameterUnit":"m.s-1","parameterCategory":1,"la1":30.2992,"la2":30.254,"lo1":-89.0895,"lo2":-89.0443,"dy":0.0025,"dx":0.0025,"nx":19,"ny":19,"refTime":"2026-05-09T21:00:00:Z","depth":0,"parameterNumber":2,"parameterNumberName":"U-component_of_WINDS"},"data":[0,0,0,1.2097,1.2094,1.1922,1.1921,1.1741,1.174,0,0,0,0,0,0,0,0,0,0,0,1.2175,1.2175,1.2097,1.2094,1.1922,1.1921,1.1742,1.174,0,0,0,0,0,0,0,0,0,0,0,1.2175,1.2175,1.2175,1.2093,1.1922,1.1921,1.1742,1.1857,0,0,0,0,0,0,0,0,0,0,1.2016,1.2116,1.2175,1.2175,1.2092,1.1922,1.1921,1.1861,1.1849,1.1838,0,1.1837,0,1.1787,1.1731,1.1731,0,0,0,1.2072,1.2126,1.2056,1.2175,1.2091,1.1923,1.1993,1.1854,1.1841,1.1822,1.1834,1.1826,1.1784,1.173,1.173,1.174,1.1741,0,0,1.2082,1.2158,1.2065,1.2048,1.2081,1.1999,1.1988,1.1845,1.1862,1.1833,1.1821,1.1781,1.1729,1.1728,1.1739,1.1741,0,0,0,1.2123,1.2166,1.2097,1.2057,1.2023,1.1995,1.1982,1.1868,1.184,1.1819,1.1778,1.1729,1.1727,1.1738,1.174,1.1867,0,0,0,1.2128,1.219,1.2103,1.2148,1.2027,1.1944,1.201,1.185,1.1831,1.1779,1.1729,1.1726,1.1737,1.1739,1.1861,1.1914,0,0,0,1.2177,1.2195,1.218,1.2152,1.2082,1.1945,1.1907,1.1844,1.1808,1.1731,1.1725,1.1736,1.1739,1.1856,1.1905,1.1939,0,0,0,1.225,1.2294,1.2184,1.2217,1.2084,1.2027,1.1907,1.186,1.1809,1.1728,1.1737,1.174,1.1854,1.1899,1.1934,1.1982,1.201,0,0,1.2348,1.2309,1.2322,1.2218,1.2201,1.2047,1.2046,1.1925,1.1846,1.1779,1.1778,1.1863,1.1904,1.1938,1.2139,1.2161,0,0,0,1.2379,1.239,1.2368,1.2325,1.2237,1.2164,1.2036,1.1991,1.1931,1.1829,1.1883,1.1905,1.1922,1.1941,1.196,1.1969,1.1752,1.1752,1.1752,1.2626,1.2526,1.2541,1.242,1.238,1.2248,1.2205,1.2122,1.2029,1.2045,1.2024,1.2158,1.2184,1.2197,1.2208,1.2041,1.2042,1.2042,1.2043,1.276,1.2759,1.2639,1.261,1.2503,1.2477,1.2352,1.2288,1.2246,1.2165,1.2174,1.2094,1.2226,1.2229,1.2051,1.205,1.2048,1.2048,1.2047,1.291,1.2892,1.2839,1.2767,1.2722,1.2597,1.2564,1.2466,1.2373,1.2383,1.235,1.2348,1.2332,1.2375,1.2375,1.2376,1.2376,1.2376,1.2377,1.3086,1.3022,1.3008,1.2919,1.2879,1.2813,1.2682,1.2639,1.2565,1.2496,1.2496,1.2403,1.2258,1.2224,1.2384,1.2382,1.2381,1.2381,1.238,1.3257,1.3203,1.3182,1.3142,1.3029,1.2991,1.2868,1.2788,1.2738,1.2725,1.2629,1.2539,1.249,1.2474,1.2445,1.2652,1.2652,1.2652,1.2652,1.3383,1.335,1.3306,1.3249,1.3181,1.3069,1.3045,1.2944,1.283,1.2792,1.2748,1.2701,1.2689,1.2647,1.2627,1.2598,1.284,1.284,1.284,1.3482,1.3439,1.3438,1.333,1.3234,1.3155,1.3129,1.3066,1.2925,1.2846,1.276,1.2752,1.2675,1.2655,1.2574,1.2545,1.2489,0,0]},{"header":{"parameterUnit":"m.s-1","parameterCategory":1,"la1":30.2992,"la2":30.254,"lo1":-89.0895,"lo2":-89.0443,"dy":0.0025,"dx":0.0025,"nx":19,"ny":19,"refTime":"2026-05-09T21:00:00:Z","depth":0,"parameterNumber":3,"parameterNumberName":"V-component_of_WINDS"},"data":[0,0,0,3.1058,3.1063,3.1296,3.1297,3.1583,3.1586,0,0,0,0,0,0,0,0,0,0,0,3.0988,3.099,3.1058,3.1063,3.1296,3.1297,3.1583,3.1586,0,0,0,0,0,0,0,0,0,0,0,3.0987,3.0989,3.0992,3.1064,3.1296,3.1297,3.1582,3.1409,0,0,0,0,0,0,0,0,0,0,3.1184,3.112,3.0989,3.0992,3.1066,3.1296,3.1297,3.1401,3.142,3.1474,0,3.1528,0,3.1562,3.1605,3.1606,0,0,0,3.1062,3.1104,3.1169,3.0992,3.1068,3.1295,3.1191,3.1411,3.1433,3.1499,3.1532,3.1543,3.1567,3.1606,3.1608,3.1941,3.1942,0,0,3.1049,3.1027,3.1154,3.1183,3.1153,3.1183,3.1198,3.1425,3.1456,3.1533,3.155,3.1571,3.1608,3.161,3.1939,3.1941,0,0,0,3.1013,3.1018,3.1078,3.1171,3.1214,3.119,3.1207,3.1446,3.1468,3.1553,3.1575,3.161,3.1613,3.1938,3.194,3.1999,0,0,0,3.1005,3.0997,3.1072,3.106,3.121,3.1334,3.1223,3.1452,3.1478,3.1573,3.161,3.1616,3.1936,3.1939,3.1994,3.2029,0,0,0,3.0973,3.0993,3.1028,3.1059,3.1159,3.1331,3.1366,3.1458,3.1492,3.1606,3.1617,3.1935,3.1938,3.1989,3.2022,3.2111,0,0,0,3.0929,3.1073,3.1028,3.1197,3.1157,3.1369,3.1365,3.1522,3.1627,3.1611,3.1936,3.194,3.1988,3.2017,3.2106,3.2181,3.2212,0,0,3.1098,3.1093,3.1194,3.1161,3.1375,3.1335,3.1556,3.167,3.1697,3.1856,3.1865,3.1996,3.2021,3.211,3.2391,3.2414,0,0,0,3.124,3.1312,3.1374,3.1477,3.1572,3.1654,3.1738,3.178,3.1918,3.1777,3.2053,3.2069,3.2122,3.2159,3.2179,3.2225,3.1956,3.1956,3.1956,3.1443,3.1478,3.1647,3.1709,3.1808,3.1895,3.1977,3.2047,3.2048,3.2113,3.2159,3.2326,3.2369,3.2384,3.2432,3.2203,3.2203,3.2204,3.2204,3.1692,3.1799,3.1803,3.1969,3.2002,3.2138,3.2227,3.2224,3.2352,3.2293,3.2341,3.2272,3.241,3.2453,3.2209,3.2208,3.2207,3.2207,3.2206,3.1828,3.1885,3.1939,3.2092,3.2205,3.2261,3.2387,3.2411,3.2434,3.2482,3.2533,3.2532,3.2533,3.2505,3.2506,3.2506,3.2507,3.2507,3.2508,3.1946,3.2006,3.2112,3.2228,3.2298,3.2392,3.2482,3.2549,3.2629,3.2636,3.2637,3.263,3.2419,3.2364,3.2517,3.2515,3.2514,3.2513,3.2513,3.2183,3.2135,3.2299,3.237,3.2508,3.2618,3.2649,3.2784,3.2843,3.2904,3.2888,3.2729,3.2723,3.2707,3.2662,3.2882,3.2882,3.2882,3.2882,3.2296,3.2298,3.2473,3.2584,3.2695,3.2742,3.2922,3.2993,3.3057,3.3095,3.3067,3.301,3.2992,3.2996,3.2974,3.2932,3.3217,3.3217,3.3217,3.2442,3.2457,3.2608,3.2678,3.2788,3.288,3.305,3.3173,3.3235,3.3231,3.3124,3.311,3.3018,3.2987,3.2978,3.2943,3.2866,0,0]}]]